OPS 4682 DEB, 38380

Orbit data source: Space-Track

OPS 4682 DEB, 38380 is space debris in LEO originally from a launch on Sat, 03 Apr 1965 UTC launched from the Air Force Western Test Range (AFWTR). Debris objects in space refer to the collection of defunct objects orbiting the Earth. Examples of debris include non-operational satellites, rocket bodies, and fragments generated from explosions, collisions, or faulty payload assembly.

Loading next visibility...
Identifier
38380, 1965-027CH
Orbit
LEO
Country
Flag of USUS
Related business
Manufacturer
Unknown
Mission
Spacecraft
Bus & Motor
Unknown
Mass
Unknown
Launch date (UTC)
1965-04-03 (61 years ago)
Launch vehicle
Unknown
Launch site
Air Force Western Test Range (AFWTR)
Object type
Payload
Rocket body
Debris
Shape & HBR
Unknown shape, 0.1 m
Radar Cross Section
Small (<0.1 m²)

Expand to show TLE details & history
Last TLE update: 6 hours ago

TLE from 6 hours ago
0 OPS 4682 DEB
1 38380U 65027CH  26036.22709583  .00004300  00000-0  14295-1 0  9994
2 38380  90.2645 318.1038 0024971 313.3811  46.5231 12.99761823560478
Epoch: 2026-02-05T05:27Z
TLE epoch observation values (Epoch: 2026-02-05T05:27:01.079Z)
Latitude
-0.00004°
Longitude
100.96695°
Altitude
1,252.797 km
Speed
7.235 km/s
True Right ascension
21h 12m 24s
True Declination
0° 00' 00"
Sunlit
Object was in daylight at epoch
Visualization orbit readout
Latitude
Unknown
Longitude
Unknown
Altitude
Unknown
Speed
Unknown
Apparent Right ascension
Unknown
Apparent Declination
Unknown
Sunlit
N/A
Visualization observer readout
Local Sidereal Time
13:37:30
Azimuth
Unknown
Elevation
Unknown
Doppler factor
Unknown
Orbital elements
Apogee altitude
1,279.221 km
Perigee altitude
1,241.074 km
Semi-major axis
7,638.284 km
Eccentricity
0.0025
Inclination
90.2645°
RAAN
318.1038°
Arg. of periapsis
313.3811°
True anomaly
46.73119°
Mean anomaly
46.5231°
Eccentric anomaly
46.6271°
Mean motion
3.25124 °/min
Orbital period
110.73 mins
BSTAR
0.014295
Loading maneuver chart data...
Computing Atmospheric mass density...
Loading historical data...
Loading historical data...
Loading historical data...
Loading historical data...
Loading historical data...
Loading historical data...
Loading historical data...

Documentation

Showing up to 5 results
|